| time (UTC) | temp C | wind direction | speed KPH | gust KPH | rain 1hr cm | rain 24hr cm | rain mn cm | humidity % | barometer mb |
| 20260508223058 | 31 | 285 | 8.0 | 11.3 | 0.00 | 0.00 | 0.00 | 61 | 1010.8 |
| 20260508222556 | 31 | 266 | 0.0 | 0.0 | 0.00 | 0.00 | 0.00 | 60 | 1010.8 |
| 20260508222053 | 31 | 314 | 4.8 | 4.8 | 0.00 | 0.00 | 0.00 | 60 | 1010.7 |
| 20260508221549 | 31 | 313 | 3.2 | 4.8 | 0.00 | 0.00 | 0.00 | 60 | 1010.9 |
| 20260508221045 | 31 | 332 | 8.0 | 11.3 | 0.00 | 0.00 | 0.00 | 59 | 1010.8 |
| 20260508220542 | 32 | 61 | 3.2 | 8.0 | 0.00 | 0.00 | 0.00 | 59 | 1010.8 |
| 20260508220038 | 32 | 272 | 6.4 | 12.9 | 0.00 | 0.00 | 0.00 | 58 | 1010.6 |
| 20260508215535 | 32 | 258 | 4.8 | 4.8 | 0.00 | 0.00 | 0.00 | 58 | 1010.7 |
| 20260508215032 | 32 | 76 | 3.2 | 4.8 | 0.00 | 0.00 | 0.00 | 59 | 1010.7 |
| 20260508214529 | 32 | 273 | 8.0 | 11.3 | 0.00 | 0.00 | 0.00 | 58 | 1010.5 |
| 20260508214025 | 32 | 260 | 6.4 | 8.0 | 0.00 | 0.00 | 0.00 | 58 | 1010.3 |
| 20260508213523 | 32 | 333 | 0.0 | 0.0 | 0.00 | 0.00 | 0.00 | 58 | 1010.3 |
| 20260508213018 | 32 | 272 | 1.6 | 9.7 | 0.00 | 0.00 | 0.00 | 58 | 1010.4 |
| 20260508212515 | 32 | 328 | 1.6 | 3.2 | 0.00 | 0.00 | 0.00 | 58 | 1010.7 |
| 20260508212012 | 32 | 239 | 0.0 | 1.6 | 0.00 | 0.00 | 0.00 | 57 | 1010.6 |
| 20260508211507 | 32 | 239 | 4.8 | 4.8 | 0.00 | 0.00 | 0.00 | 57 | 1010.7 |
| 20260508211004 | 32 | 278 | 11.3 | 14.5 | 0.00 | 0.00 | 0.00 | 57 | 1010.5 |
| 20260508210501 | 32 | 252 | 0.0 | 0.0 | 0.00 | 0.00 | 0.00 | 56 | 1010.4 |
| 20260508205957 | 31 | 244 | 0.0 | 0.0 | 0.00 | 0.00 | 0.00 | 59 | 1010.6 |
| 20260508205454 | 32 | 273 | 6.4 | 9.7 | 0.00 | 0.00 | 0.00 | 57 | 1010.6 |
| 20260508204951 | 32 | 245 | 3.2 | 8.0 | 0.00 | 0.00 | 0.00 | 55 | 1010.5 |
| 20260508204448 | 32 | 345 | 1.6 | 3.2 | 0.00 | 0.00 | 0.00 | 58 | 1010.6 |
| 20260508203943 | 32 | 302 | 6.4 | 8.0 | 0.00 | 0.00 | 0.00 | 58 | 1010.6 |
| 20260508203440 | 33 | 316 | 11.3 | 12.9 | 0.00 | 0.00 | 0.00 | 57 | 1010.8 |
| 20260508202935 | 32 | 277 | 0.0 | 0.0 | 0.00 | 0.00 | 0.00 | 56 | 1010.7 |
| 20260508202433 | 32 | 268 | 8.0 | 9.7 | 0.00 | 0.00 | 0.00 | 57 | 1011.0 |
| 20260508201930 | 32 | 268 | 3.2 | 4.8 | 0.00 | 0.00 | 0.00 | 57 | 1010.8 |
| 20260508201426 | 32 | 250 | 4.8 | 8.0 | 0.00 | 0.00 | 0.00 | 58 | 1011.1 |
| 20260508200923 | 32 | 247 | 0.0 | 0.0 | 0.00 | 0.00 | 0.00 | 56 | 1011.1 |
| 20260508200420 | 32 | 211 | 0.0 | 0.0 | 0.00 | 0.00 | 0.00 | 54 | 1011.1 |
| 20260508195915 | 32 | 270 | 0.0 | 0.0 | 0.00 | 0.00 | 0.00 | 58 | 1011.3 |
| 20260508195413 | 31 | 259 | 0.0 | 0.0 | 0.00 | 0.00 | 0.00 | 58 | 1011.3 |
| 20260508194908 | 32 | 274 | 6.4 | 8.0 | 0.00 | 0.00 | 0.00 | 57 | 1011.3 |
| 20260508194406 | 32 | 268 | 8.0 | 8.0 | 0.00 | 0.00 | 0.00 | 56 | 1011.2 |
| 20260508193903 | 33 | 279 | 8.0 | 11.3 | 0.00 | 0.00 | 0.00 | 54 | 1011.3 |
| 20260508193359 | 32 | 200 | 0.0 | 0.0 | 0.00 | 0.00 | 0.00 | 54 | 1011.4 |
| 20260508192856 | 32 | 266 | 6.4 | 9.7 | 0.00 | 0.00 | 0.00 | 56 | 1011.5 |
| 20260508192353 | 32 | 275 | 4.8 | 8.0 | 0.00 | 0.00 | 0.00 | 58 | 1011.5 |
| 20260508191850 | 32 | 318 | 11.3 | 14.5 | 0.00 | 0.00 | 0.00 | 56 | 1011.9 |
| 20260508191348 | 31 | 287 | 3.2 | 9.7 | 0.00 | 0.00 | 0.00 | 57 | 1011.8 |
| 20260508190844 | 32 | 317 | 4.8 | 9.7 | 0.00 | 0.00 | 0.00 | 57 | 1012.1 |
| 20260508190341 | 32 | 270 | 3.2 | 4.8 | 0.00 | 0.00 | 0.00 | 55 | 1012.0 |
| 20260508185837 | 31 | 314 | 4.8 | 9.7 | 0.00 | 0.00 | 0.00 | 58 | 1011.9 |
| 20260508185335 | 33 | 267 | 4.8 | 8.0 | 0.00 | 0.00 | 0.00 | 57 | 1012.0 |
| 20260508184832 | 32 | 316 | 3.2 | 4.8 | 0.00 | 0.00 | 0.00 | 57 | 1012.3 |
| 20260508184329 | 32 | 275 | 3.2 | 8.0 | 0.00 | 0.00 | 0.00 | 57 | 1012.1 |
| 20260508183826 | 31 | 337 | 3.2 | 9.7 | 0.00 | 0.00 | 0.00 | 59 | 1012.6 |
| 20260508183323 | 31 | 195 | 0.0 | 0.0 | 0.00 | 0.00 | 0.00 | 61 | 1012.5 |
| 20260508182818 | 31 | 286 | 4.8 | 9.7 | 0.00 | 0.00 | 0.00 | 60 | 1012.7 |
| 20260508182315 | 32 | 265 | 6.4 | 11.3 | 0.00 | 0.00 | 0.00 | 59 | 1012.8 |
| 20260508181811 | 32 | 253 | 0.0 | 0.0 | 0.00 | 0.00 | 0.00 | 58 | 1012.6 |
| 20260508181308 | 32 | 246 | 0.0 | 0.0 | 0.00 | 0.00 | 0.00 | 60 | 1013.0 |
| 20260508180805 | 32 | 306 | 0.0 | 0.0 | 0.00 | 0.00 | 0.00 | 58 | 1013.0 |
| 20260508180302 | 32 | 266 | 0.0 | 0.0 | 0.00 | 0.00 | 0.00 | 60 | 1013.0 |
| 20260508175758 | 32 | 272 | 8.0 | 9.7 | 0.00 | 0.00 | 0.00 | 62 | 1012.8 |
| 20260508175255 | 32 | 335 | 0.0 | 3.2 | 0.00 | 0.00 | 0.00 | 62 | 1012.9 |
| 20260508174753 | 33 | 196 | 0.0 | 0.0 | 0.00 | 0.00 | 0.00 | 55 | 1013.0 |
| 20260508174250 | 32 | 211 | 0.0 | 1.6 | 0.00 | 0.00 | 0.00 | 56 | 1013.1 |
| 20260508173746 | 31 | 252 | 3.2 | 8.0 | 0.00 | 0.00 | 0.00 | 58 | 1013.1 |
| 20260508173242 | 31 | 256 | 4.8 | 9.7 | 0.00 | 0.00 | 0.00 | 62 | 1013.2 |
| 20260508172739 | 31 | 275 | 4.8 | 4.8 | 0.00 | 0.00 | 0.00 | 59 | 1013.4 |
| 20260508172236 | 31 | 225 | 1.6 | 3.2 | 0.00 | 0.00 | 0.00 | 61 | 1013.4 |
| 20260508171733 | 31 | 192 | 1.6 | 8.0 | 0.00 | 0.00 | 0.00 | 62 | 1013.4 |
| 20260508171228 | 31 | 297 | 3.2 | 4.8 | 0.00 | 0.00 | 0.00 | 64 | 1013.6 |
| 20260508170726 | 31 | 289 | 0.0 | 0.0 | 0.00 | 0.00 | 0.00 | 63 | 1013.7 |
| 20260508170224 | 31 | 241 | 0.0 | 0.0 | 0.00 | 0.00 | 0.00 | 62 | 1013.5 |
| 20260508165720 | 31 | 301 | 0.0 | 0.0 | 0.00 | 0.00 | 0.00 | 63 | 1013.7 |
| 20260508165218 | 31 | 237 | 0.0 | 1.6 | 0.00 | 0.00 | 0.00 | 64 | 1013.7 |
| 20260508164714 | 31 | 244 | 0.0 | 0.0 | 0.00 | 0.00 | 0.00 | 64 | 1013.8 |
| 20260508164210 | 31 | 284 | 0.0 | 0.0 | 0.00 | 0.00 | 0.00 | 59 | 1013.9 |
| 20260508163709 | 31 | 250 | 6.4 | 9.7 | 0.00 | 0.00 | 0.00 | 62 | 1014.0 |
| 20260508163206 | 31 | 258 | 1.6 | 8.0 | 0.00 | 0.00 | 0.00 | 62 | 1013.7 |
| 20260508162701 | 30 | 302 | 1.6 | 8.0 | 0.00 | 0.00 | 0.00 | 64 | 1014.1 |
| 20260508162159 | 30 | 176 | 0.0 | 0.0 | 0.00 | 0.00 | 0.00 | 65 | 1014.1 |
| 20260508161655 | 30 | 256 | 0.0 | 0.0 | 0.00 | 0.00 | 0.00 | 65 | 1014.2 |
| 20260508161153 | 30 | 276 | 3.2 | 4.8 | 0.00 | 0.00 | 0.00 | 69 | 1014.1 |
| 20260508160651 | 30 | 354 | 1.6 | 11.3 | 0.00 | 0.00 | 0.00 | 70 | 1014.3 |
| 20260508160149 | 30 | 276 | 6.4 | 9.7 | 0.00 | 0.00 | 0.00 | 71 | 1014.6 |
| 20260508155645 | 30 | 257 | 4.8 | 4.8 | 0.00 | 0.00 | 0.00 | 68 | 1014.7 |
| 20260508155142 | 29 | 246 | 0.0 | 0.0 | 0.00 | 0.00 | 0.00 | 70 | 1014.7 |
| 20260508154639 | 31 | 261 | 0.0 | 0.0 | 0.00 | 0.00 | 0.00 | 70 | 1014.6 |
| 20260508154136 | 30 | 116 | 0.0 | 0.0 | 0.00 | 0.00 | 0.00 | 73 | 1014.6 |
| 20260508153632 | 29 | 333 | 0.0 | 3.2 | 0.00 | 0.00 | 0.00 | 70 | 1014.6 |
| 20260508153130 | 29 | 150 | 1.6 | 3.2 | 0.00 | 0.00 | 0.00 | 73 | 1014.7 |
| 20260508152626 | 30 | 320 | 8.0 | 11.3 | 0.00 | 0.00 | 0.00 | 73 | 1014.6 |
| 20260508152121 | 29 | 247 | 0.0 | 0.0 | 0.00 | 0.00 | 0.00 | 73 | 1014.7 |
| 20260508151619 | 28 | 107 | 0.0 | 0.0 | 0.00 | 0.00 | 0.00 | 75 | 1014.8 |
| 20260508151115 | 29 | 295 | 6.4 | 8.0 | 0.00 | 0.00 | 0.00 | 78 | 1014.7 |
| 20260508150613 | 30 | 277 | 0.0 | 0.0 | 0.00 | 0.00 | 0.00 | 75 | 1014.7 |
| 20260508150109 | 29 | 279 | 0.0 | 0.0 | 0.00 | 0.00 | 0.00 | 77 | 1014.9 |
| 20260508145605 | 28 | 262 | 0.0 | 3.2 | 0.00 | 0.00 | 0.00 | 77 | 1015.0 |
| 20260508145102 | 27 | 286 | 0.0 | 0.0 | 0.00 | 0.00 | 0.00 | 81 | 1014.9 |
| 20260508144559 | 27 | 247 | 4.8 | 8.0 | 0.00 | 0.00 | 0.00 | 82 | 1014.9 |
| 20260508144056 | 29 | 287 | 0.0 | 0.0 | 0.00 | 0.00 | 0.00 | 78 | 1015.0 |
| 20260508143554 | 28 | 264 | 0.0 | 0.0 | 0.00 | 0.00 | 0.00 | 79 | 1014.9 |
| 20260508143050 | 28 | 250 | 0.0 | 0.0 | 0.00 | 0.00 | 0.00 | 81 | 1014.8 |
| 20260508142547 | 27 | 227 | 0.0 | 0.0 | 0.00 | 0.00 | 0.00 | 81 | 1014.9 |
| 20260508142044 | 28 | 60 | 0.0 | 1.6 | 0.00 | 0.00 | 0.00 | 81 | 1015.0 |
| 20260508141540 | 27 | 282 | 0.0 | 0.0 | 0.00 | 0.00 | 0.00 | 83 | 1015.0 |
| 20260508141038 | 28 | 259 | 0.0 | 0.0 | 0.00 | 0.00 | 0.00 | 82 | 1014.6 |
| 20260508140535 | 27 | 273 | 0.0 | 0.0 | 0.00 | 0.00 | 0.00 | 82 | 1014.7 |
| 20260508140031 | 27 | 170 | 0.0 | 0.0 | 0.00 | 0.00 | 0.00 | 86 | 1014.9 |
| 20260508135527 | 26 | 257 | 0.0 | 0.0 | 0.00 | 0.00 | 0.00 | 88 | 1014.8 |
| 20260508135024 | 26 | 335 | 0.0 | 0.0 | 0.00 | 0.00 | 0.00 | 87 | 1015.0 |
| 20260508134521 | 27 | 25 | 0.0 | 0.0 | 0.00 | 0.00 | 0.00 | 86 | 1014.9 |
| 20260508134018 | 26 | 203 | 0.0 | 0.0 | 0.00 | 0.00 | 0.00 | 88 | 1015.0 |
| 20260508133514 | 26 | 274 | 0.0 | 0.0 | 0.00 | 0.00 | 0.00 | 88 | 1014.8 |
| 20260508133011 | 26 | 164 | 1.6 | 1.6 | 0.00 | 0.00 | 0.00 | 89 | 1015.0 |
| 20260508132510 | 26 | 271 | 0.0 | 0.0 | 0.00 | 0.00 | 0.00 | 90 | 1015.1 |
| 20260508132006 | 25 | 262 | 0.0 | 0.0 | 0.00 | 0.00 | 0.00 | 92 | 1014.9 |
| 20260508131501 | 25 | 301 | 0.0 | 0.0 | 0.00 | 0.00 | 0.00 | 94 | 1015.0 |
| 20260508130958 | 25 | 251 | 0.0 | 0.0 | 0.00 | 0.00 | 0.00 | 95 | 1015.1 |
| 20260508130455 | 25 | 252 | 0.0 | 0.0 | 0.00 | 0.00 | 0.00 | 96 | 1015.0 |
| 20260508125950 | 24 | 286 | 0.0 | 0.0 | 0.00 | 0.00 | 0.00 | 96 | 1014.9 |
| 20260508125447 | 24 | 131 | 0.0 | 0.0 | 0.00 | 0.00 | 0.00 | 97 | 1014.9 |
| 20260508124945 | 23 | 221 | 0.0 | 0.0 | 0.00 | 0.00 | 0.00 | 97 | 1014.9 |
| 20260508124443 | 23 | 198 | 0.0 | 0.0 | 0.00 | 0.00 | 0.00 | 97 | 1014.9 |
| 20260508123940 | 23 | 180 | 0.0 | 0.0 | 0.00 | 0.00 | 0.00 | 98 | 1014.9 |
| 20260508123439 | 23 | 258 | 0.0 | 0.0 | 0.00 | 0.00 | 0.00 | 98 | 1014.9 |
| 20260508122934 | 23 | 164 | 0.0 | 0.0 | 0.00 | 0.00 | 0.00 | 98 | 1014.7 |
| 20260508122431 | 23 | 218 | 0.0 | 0.0 | 0.00 | 0.00 | 0.00 | 98 | 1014.7 |
| 20260508121929 | 22 | 169 | 0.0 | 0.0 | 0.00 | 0.00 | 0.00 | 98 | 1014.5 |
| 20260508121427 | 22 | 151 | 0.0 | 0.0 | 0.00 | 0.00 | 0.00 | 98 | 1014.6 |
| 20260508120924 | 22 | 149 | 0.0 | 0.0 | 0.00 | 0.00 | 0.00 | 98 | 1014.5 |
| 20260508120422 | 22 | 157 | 0.0 | 0.0 | 0.00 | 0.00 | 0.00 | 98 | 1014.8 |
| 20260508115919 | 22 | 158 | 0.0 | 0.0 | 0.00 | 0.00 | 0.00 | 98 | 1014.2 |
| 20260508115418 | 22 | 153 | 0.0 | 0.0 | 0.00 | 0.00 | 0.00 | 98 | 1014.4 |
| 20260508114913 | 21 | 145 | 0.0 | 0.0 | 0.00 | 0.00 | 0.00 | 98 | 1014.3 |
| 20260508114410 | 21 | 151 | 0.0 | 0.0 | 0.00 | 0.00 | 0.00 | 98 | 1014.3 |
| 20260508113907 | 21 | 141 | 0.0 | 0.0 | 0.00 | 0.00 | 0.00 | 98 | 1014.0 |
| 20260508113405 | 21 | 145 | 0.0 | 0.0 | 0.00 | 0.00 | 0.00 | 98 | 1014.0 |
| 20260508112902 | 21 | 141 | 0.0 | 0.0 | 0.00 | 0.00 | 0.00 | 98 | 1014.0 |
| 20260508112358 | 21 | 150 | 0.0 | 0.0 | 0.00 | 0.00 | 0.00 | 98 | 1013.8 |
| 20260508111855 | 20 | 147 | 0.0 | 0.0 | 0.00 | 0.00 | 0.00 | 98 | 1013.8 |
| 20260508111352 | 20 | 149 | 0.0 | 0.0 | 0.00 | 0.00 | 0.00 | 98 | 1013.5 |
| 20260508110849 | 20 | 151 | 0.0 | 0.0 | 0.00 | 0.00 | 0.00 | 98 | 1013.5 |
| 20260508110347 | 20 | 153 | 0.0 | 0.0 | 0.00 | 0.00 | 0.00 | 98 | 1013.5 |
| 20260508105846 | 20 | 161 | 0.0 | 0.0 | 0.00 | 0.00 | 0.00 | 98 | 1013.5 |
| 20260508105343 | 20 | 161 | 0.0 | 0.0 | 0.00 | 0.00 | 0.00 | 98 | 1013.4 |
| 20260508104840 | 20 | 161 | 0.0 | 0.0 | 0.00 | 0.00 | 0.00 | 98 | 1013.4 |
| 20260508104337 | 20 | 161 | 0.0 | 0.0 | 0.00 | 0.00 | 0.00 | 98 | 1013.3 |
| 20260508103835 | 20 | 161 | 0.0 | 0.0 | 0.00 | 0.00 | 0.00 | 98 | 1013.2 |
| 20260508103331 | 20 | 161 | 0.0 | 0.0 | 0.00 | 0.00 | 0.00 | 98 | 1013.2 |
| 20260508102829 | 21 | 161 | 0.0 | 0.0 | 0.00 | 0.00 | 0.00 | 98 | 1013.2 |
| 20260508102327 | 20 | 169 | 0.0 | 0.0 | 0.00 | 0.00 | 0.00 | 98 | 1013.0 |
| 20260508101824 | 21 | 169 | 0.0 | 0.0 | 0.00 | 0.00 | 0.00 | 98 | 1012.9 |
| 20260508101321 | 20 | 166 | 0.0 | 0.0 | 0.00 | 0.00 | 0.00 | 98 | 1013.0 |
| 20260508100819 | 20 | 165 | 0.0 | 0.0 | 0.00 | 0.00 | 0.00 | 98 | 1012.9 |
| 20260508100317 | 21 | 161 | 0.0 | 0.0 | 0.00 | 0.00 | 0.00 | 98 | 1013.0 |
| 20260508095812 | 21 | 161 | 0.0 | 0.0 | 0.00 | 0.00 | 0.00 | 98 | 1012.7 |
| 20260508095310 | 20 | 161 | 0.0 | 0.0 | 0.00 | 0.00 | 0.00 | 97 | 1012.9 |
| 20260508094807 | 20 | 162 | 0.0 | 0.0 | 0.00 | 0.00 | 0.00 | 97 | 1012.9 |
| 20260508094304 | 20 | 162 | 0.0 | 0.0 | 0.00 | 0.00 | 0.00 | 97 | 1012.5 |
| 20260508093801 | 20 | 162 | 0.0 | 0.0 | 0.00 | 0.00 | 0.00 | 97 | 1012.8 |
| 20260508093259 | 20 | 162 | 0.0 | 0.0 | 0.00 | 0.00 | 0.00 | 97 | 1012.5 |
| 20260508092755 | 20 | 161 | 0.0 | 0.0 | 0.00 | 0.00 | 0.00 | 97 | 1012.4 |
| 20260508092254 | 20 | 161 | 0.0 | 0.0 | 0.00 | 0.00 | 0.00 | 97 | 1012.7 |
| 20260508091751 | 20 | 160 | 0.0 | 0.0 | 0.00 | 0.00 | 0.00 | 97 | 1012.6 |
| 20260508091248 | 21 | 160 | 0.0 | 0.0 | 0.00 | 0.00 | 0.00 | 97 | 1012.4 |
| 20260508090746 | 20 | 160 | 0.0 | 0.0 | 0.00 | 0.00 | 0.00 | 97 | 1012.6 |
| 20260508090243 | 20 | 160 | 0.0 | 0.0 | 0.00 | 0.00 | 0.00 | 97 | 1012.5 |
| 20260508085739 | 21 | 157 | 0.0 | 0.0 | 0.00 | 0.00 | 0.00 | 97 | 1012.4 |
| 20260508085236 | 21 | 160 | 0.0 | 0.0 | 0.00 | 0.00 | 0.00 | 97 | 1012.4 |
| 20260508084732 | 21 | 155 | 0.0 | 0.0 | 0.00 | 0.00 | 0.00 | 97 | 1012.3 |
| 20260508084230 | 21 | 155 | 0.0 | 0.0 | 0.00 | 0.00 | 0.00 | 97 | 1012.3 |
| 20260508083727 | 21 | 161 | 0.0 | 0.0 | 0.00 | 0.00 | 0.00 | 97 | 1012.3 |
| 20260508083225 | 21 | 151 | 0.0 | 0.0 | 0.00 | 0.00 | 0.00 | 97 | 1012.5 |
| 20260508082719 | 21 | 150 | 0.0 | 0.0 | 0.00 | 0.00 | 0.00 | 97 | 1012.5 |
| 20260508082218 | 21 | 161 | 0.0 | 0.0 | 0.00 | 0.00 | 0.00 | 97 | 1012.4 |
| 20260508081715 | 21 | 162 | 0.0 | 0.0 | 0.00 | 0.00 | 0.00 | 97 | 1012.6 |
| 20260508081211 | 21 | 151 | 0.0 | 0.0 | 0.00 | 0.00 | 0.00 | 97 | 1012.1 |
| 20260508080708 | 21 | 150 | 0.0 | 0.0 | 0.00 | 0.00 | 0.00 | 97 | 1012.5 |
| 20260508080206 | 21 | 151 | 0.0 | 0.0 | 0.00 | 0.00 | 0.00 | 97 | 1012.3 |
| 20260508075702 | 21 | 143 | 0.0 | 0.0 | 0.00 | 0.00 | 0.00 | 97 | 1012.5 |
| 20260508075200 | 21 | 145 | 0.0 | 0.0 | 0.00 | 0.00 | 0.00 | 97 | 1012.3 |
| 20260508074657 | 21 | 156 | 0.0 | 0.0 | 0.00 | 0.00 | 0.00 | 97 | 1012.6 |
| 20260508074154 | 21 | 155 | 0.0 | 0.0 | 0.00 | 0.00 | 0.00 | 97 | 1012.6 |
| 20260508073651 | 21 | 156 | 0.0 | 0.0 | 0.00 | 0.00 | 0.00 | 97 | 1012.4 |
| 20260508073149 | 21 | 158 | 0.0 | 0.0 | 0.00 | 0.00 | 0.00 | 97 | 1012.6 |
| 20260508072644 | 21 | 158 | 0.0 | 0.0 | 0.00 | 0.00 | 0.00 | 97 | 1012.4 |
| 20260508072142 | 21 | 158 | 0.0 | 0.0 | 0.00 | 0.00 | 0.00 | 97 | 1012.5 |
| 20260508071639 | 21 | 162 | 0.0 | 0.0 | 0.00 | 0.00 | 0.00 | 97 | 1012.7 |
| 20260508071137 | 21 | 162 | 0.0 | 0.0 | 0.00 | 0.00 | 0.00 | 96 | 1012.7 |
| 20260508070635 | 21 | 152 | 0.0 | 0.0 | 0.00 | 0.00 | 0.00 | 96 | 1012.8 |
| 20260508070133 | 21 | 158 | 0.0 | 0.0 | 0.00 | 0.00 | 0.00 | 96 | 1013.0 |
| 20260508065630 | 21 | 162 | 0.0 | 0.0 | 0.00 | 0.00 | 0.00 | 96 | 1012.9 |
| 20260508065128 | 22 | 162 | 0.0 | 0.0 | 0.00 | 0.00 | 0.00 | 96 | 1012.9 |
| 20260508064625 | 22 | 151 | 0.0 | 0.0 | 0.00 | 0.00 | 0.00 | 96 | 1012.8 |
| 20260508064123 | 22 | 151 | 0.0 | 0.0 | 0.00 | 0.00 | 0.00 | 96 | 1012.8 |
| 20260508063620 | 21 | 158 | 0.0 | 0.0 | 0.00 | 0.00 | 0.00 | 96 | 1013.0 |
| 20260508062616 | 21 | 166 | 0.0 | 0.0 | 0.00 | 0.00 | 0.00 | 96 | 1012.9 |
| 20260508062112 | 21 | 156 | 0.0 | 0.0 | 0.00 | 0.00 | 0.00 | 96 | 1013.1 |
| 20260508061609 | 22 | 156 | 0.0 | 0.0 | 0.00 | 0.00 | 0.00 | 96 | 1013.1 |
| 20260508061107 | 22 | 159 | 0.0 | 0.0 | 0.00 | 0.00 | 0.00 | 96 | 1013.2 |
| 20260508060603 | 21 | 152 | 0.0 | 0.0 | 0.00 | 0.00 | 0.00 | 96 | 1013.1 |
| 20260508060101 | 22 | 153 | 0.0 | 0.0 | 0.00 | 0.00 | 0.00 | 96 | 1013.2 |
| 20260508055556 | 22 | 149 | 0.0 | 0.0 | 0.00 | 0.00 | 0.00 | 95 | 1013.4 |
| 20260508055053 | 22 | 162 | 0.0 | 0.0 | 0.00 | 0.00 | 0.00 | 95 | 1013.3 |
| 20260508054549 | 21 | 155 | 0.0 | 0.0 | 0.00 | 0.00 | 0.00 | 95 | 1013.2 |
| 20260508054047 | 21 | 153 | 0.0 | 0.0 | 0.00 | 0.00 | 0.00 | 95 | 1013.4 |
| 20260508053543 | 21 | 153 | 0.0 | 0.0 | 0.00 | 0.00 | 0.00 | 95 | 1013.3 |
| 20260508053042 | 22 | 153 | 0.0 | 0.0 | 0.00 | 0.00 | 0.00 | 95 | 1013.2 |
| 20260508052539 | 22 | 153 | 0.0 | 0.0 | 0.00 | 0.00 | 0.00 | 95 | 1013.3 |
| 20260508052036 | 22 | 152 | 0.0 | 0.0 | 0.00 | 0.00 | 0.00 | 95 | 1013.5 |
| 20260508051532 | 22 | 152 | 0.0 | 0.0 | 0.00 | 0.00 | 0.00 | 95 | 1013.3 |
| 20260508051027 | 22 | 153 | 0.0 | 0.0 | 0.00 | 0.00 | 0.00 | 95 | 1013.4 |
| 20260508050524 | 22 | 160 | 0.0 | 0.0 | 0.00 | 0.00 | 0.00 | 95 | 1013.5 |
| 20260508050021 | 22 | 136 | 0.0 | 0.0 | 0.00 | 0.00 | 0.00 | 95 | 1013.5 |
| 20260508045517 | 22 | 205 | 0.0 | 0.0 | 0.00 | 0.00 | 0.00 | 95 | 1013.6 |
| 20260508045015 | 22 | 141 | 0.0 | 0.0 | 0.00 | 0.00 | 0.00 | 94 | 1013.7 |
| 20260508044512 | 22 | 142 | 0.0 | 0.0 | 0.00 | 0.00 | 0.00 | 94 | 1013.6 |
| 20260508044008 | 22 | 151 | 0.0 | 0.0 | 0.00 | 0.00 | 0.00 | 94 | 1013.6 |
| 20260508043505 | 21 | 149 | 0.0 | 0.0 | 0.00 | 0.00 | 0.00 | 94 | 1013.5 |
| 20260508043001 | 22 | 150 | 0.0 | 0.0 | 0.00 | 0.00 | 0.00 | 94 | 1013.7 |
| 20260508042459 | 22 | 149 | 0.0 | 0.0 | 0.00 | 0.00 | 0.00 | 93 | 1013.6 |
| 20260508041956 | 22 | 152 | 0.0 | 0.0 | 0.00 | 0.00 | 0.00 | 94 | 1013.5 |
| 20260508041452 | 22 | 146 | 0.0 | 0.0 | 0.00 | 0.00 | 0.00 | 93 | 1013.6 |
| 20260508040949 | 22 | 154 | 0.0 | 0.0 | 0.00 | 0.00 | 0.00 | 93 | 1013.7 |
| 20260508040446 | 22 | 151 | 0.0 | 0.0 | 0.00 | 0.00 | 0.00 | 93 | 1013.8 |
| 20260508035944 | 22 | 150 | 0.0 | 0.0 | 0.00 | 0.00 | 0.00 | 93 | 1013.6 |
| 20260508035440 | 22 | 149 | 0.0 | 0.0 | 0.00 | 0.00 | 0.00 | 92 | 1013.8 |
| 20260508034937 | 22 | 149 | 0.0 | 0.0 | 0.00 | 0.00 | 0.00 | 92 | 1013.8 |
| 20260508034435 | 22 | 148 | 0.0 | 0.0 | 0.00 | 0.00 | 0.00 | 92 | 1013.9 |
| 20260508033931 | 22 | 146 | 0.0 | 0.0 | 0.00 | 0.00 | 0.00 | 92 | 1013.9 |
| 20260508033430 | 22 | 147 | 0.0 | 0.0 | 0.00 | 0.00 | 0.00 | 92 | 1013.7 |
| 20260508032926 | 23 | 138 | 0.0 | 0.0 | 0.00 | 0.00 | 0.00 | 92 | 1013.8 |
| 20260508032424 | 22 | 190 | 0.0 | 0.0 | 0.00 | 0.00 | 0.00 | 92 | 1013.6 |
| 20260508031920 | 22 | 149 | 0.0 | 0.0 | 0.00 | 0.00 | 0.00 | 92 | 1013.6 |
| 20260508031418 | 22 | 149 | 0.0 | 0.0 | 0.00 | 0.00 | 0.00 | 91 | 1013.7 |
| 20260508030913 | 22 | 149 | 0.0 | 0.0 | 0.00 | 0.00 | 0.00 | 91 | 1013.7 |
| 20260508030411 | 22 | 144 | 0.0 | 0.0 | 0.00 | 0.00 | 0.00 | 91 | 1013.7 |
| 20260508025908 | 22 | 147 | 0.0 | 0.0 | 0.00 | 0.00 | 0.00 | 91 | 1013.5 |
| 20260508025404 | 23 | 146 | 0.0 | 0.0 | 0.00 | 0.00 | 0.00 | 90 | 1013.4 |
| 20260508024901 | 23 | 137 | 0.0 | 0.0 | 0.00 | 0.00 | 0.00 | 90 | 1013.4 |
| 20260508024358 | 23 | 116 | 0.0 | 0.0 | 0.00 | 0.00 | 0.00 | 90 | 1013.7 |
| 20260508023855 | 23 | 157 | 0.0 | 0.0 | 0.00 | 0.00 | 0.00 | 89 | 1013.5 |
| 20260508023352 | 23 | 157 | 0.0 | 0.0 | 0.00 | 0.00 | 0.00 | 89 | 1013.7 |
| 20260508022848 | 23 | 155 | 0.0 | 0.0 | 0.00 | 0.00 | 0.00 | 89 | 1013.6 |
| 20260508022344 | 23 | 144 | 0.0 | 0.0 | 0.00 | 0.00 | 0.00 | 88 | 1013.5 |
| 20260508021841 | 23 | 2 | 0.0 | 0.0 | 0.00 | 0.00 | 0.00 | 88 | 1013.6 |
| 20260508021337 | 23 | 180 | 0.0 | 0.0 | 0.00 | 0.00 | 0.00 | 88 | 1013.5 |
| 20260508020833 | 24 | 105 | 0.0 | 0.0 | 0.00 | 0.00 | 0.00 | 87 | 1013.4 |
| 20260508020332 | 24 | 222 | 0.0 | 0.0 | 0.00 | 0.00 | 0.00 | 87 | 1013.5 |
| 20260508015829 | 24 | 173 | 0.0 | 0.0 | 0.00 | 0.00 | 0.00 | 87 | 1013.5 |
| 20260508015326 | 24 | 176 | 0.0 | 0.0 | 0.00 | 0.00 | 0.00 | 86 | 1013.4 |
| 20260508014822 | 24 | 178 | 0.0 | 0.0 | 0.00 | 0.00 | 0.00 | 85 | 1013.5 |
| 20260508014320 | 25 | 310 | 0.0 | 0.0 | 0.00 | 0.00 | 0.00 | 85 | 1013.5 |
| 20260508013815 | 25 | 235 | 0.0 | 0.0 | 0.00 | 0.00 | 0.00 | 84 | 1013.4 |
| 20260508013311 | 25 | 261 | 0.0 | 0.0 | 0.00 | 0.00 | 0.00 | 84 | 1013.5 |
| 20260508012809 | 25 | 227 | 0.0 | 0.0 | 0.00 | 0.00 | 0.00 | 83 | 1013.5 |
| 20260508012307 | 25 | 173 | 0.0 | 0.0 | 0.00 | 0.00 | 0.00 | 82 | 1013.2 |
| 20260508011804 | 25 | 277 | 0.0 | 0.0 | 0.00 | 0.00 | 0.00 | 82 | 1013.3 |
| 20260508011301 | 25 | 316 | 0.0 | 0.0 | 0.00 | 0.00 | 0.00 | 81 | 1013.1 |
| 20260508010758 | 25 | 206 | 0.0 | 0.0 | 0.00 | 0.00 | 0.00 | 80 | 1013.3 |
| 20260508010256 | 25 | 218 | 0.0 | 0.0 | 0.00 | 0.00 | 0.00 | 79 | 1013.3 |
| 20260508005753 | 25 | 180 | 3.2 | 3.2 | 0.00 | 0.00 | 0.00 | 78 | 1013.2 |
| 20260508005249 | 25 | 298 | 4.8 | 4.8 | 0.00 | 0.00 | 0.00 | 78 | 1013.2 |
| 20260508004745 | 26 | 203 | 3.2 | 4.8 | 0.00 | 0.00 | 0.00 | 77 | 1013.2 |
| 20260508004242 | 26 | 316 | 1.6 | 3.2 | 0.00 | 0.00 | 0.00 | 76 | 1013.1 |
| 20260508003738 | 26 | 350 | 0.0 | 0.0 | 0.00 | 0.00 | 0.00 | 75 | 1013.1 |
| 20260508003236 | 26 | 253 | 0.0 | 0.0 | 0.00 | 0.00 | 0.00 | 74 | 1013.0 |
| 20260508002732 | 26 | 227 | 0.0 | 0.0 | 0.00 | 0.00 | 0.00 | 74 | 1012.9 |
| 20260508002230 | 26 | 283 | 0.0 | 0.0 | 0.00 | 0.00 | 0.00 | 73 | 1013.1 |
| 20260508001725 | 26 | 206 | 0.0 | 0.0 | 0.00 | 0.00 | 0.00 | 74 | 1013.1 |
| 20260508001221 | 26 | 22 | 0.0 | 0.0 | 0.00 | 0.00 | 0.00 | 72 | 1013.0 |
| 20260508000717 | 27 | 315 | 0.0 | 0.0 | 0.00 | 0.00 | 0.00 | 72 | 1012.9 |
| 20260508000215 | 27 | 209 | 0.0 | 0.0 | 0.00 | 0.00 | 0.00 | 71 | 1012.9 |
| 20260507235711 | 27 | 324 | 0.0 | 0.0 | 0.00 | 0.00 | 0.00 | 70 | 1013.1 |
| 20260507235208 | 27 | 311 | 0.0 | 0.0 | 0.00 | 0.00 | 0.00 | 69 | 1013.0 |
| 20260507234705 | 27 | 348 | 0.0 | 0.0 | 0.00 | 0.00 | 0.00 | 68 | 1013.2 |
| 20260507234202 | 27 | 326 | 0.0 | 0.0 | 0.00 | 0.00 | 0.00 | 67 | 1013.1 |
| 20260507233658 | 28 | 351 | 4.8 | 8.0 | 0.00 | 0.00 | 0.00 | 65 | 1013.0 |
| 20260507233157 | 28 | 191 | 0.0 | 0.0 | 0.00 | 0.00 | 0.00 | 65 | 1013.2 |
| 20260507232653 | 28 | 284 | 8.0 | 14.5 | 0.00 | 0.00 | 0.00 | 63 | 1013.0 |
| 20260507232150 | 28 | 287 | 8.0 | 9.7 | 0.00 | 0.00 | 0.00 | 61 | 1012.9 |
| 20260507231647 | 28 | 255 | 0.0 | 0.0 | 0.00 | 0.00 | 0.00 | 62 | 1013.0 |
| 20260507231144 | 29 | 260 | 1.6 | 9.7 | 0.00 | 0.00 | 0.00 | 59 | 1013.1 |
| 20260507230641 | 29 | 238 | 0.0 | 0.0 | 0.00 | 0.00 | 0.00 | 58 | 1013.0 |
| 20260507230138 | 29 | 1 | 8.0 | 9.7 | 0.00 | 0.00 | 0.00 | 58 | 1013.2 |
| 20260507225637 | 29 | 269 | 0.0 | 1.6 | 0.00 | 0.00 | 0.00 | 58 | 1013.0 |
| 20260507225134 | 30 | 247 | 8.0 | 9.7 | 0.00 | 0.00 | 0.00 | 56 | 1012.8 |
| 20260507224629 | 30 | 282 | 0.0 | 1.6 | 0.00 | 0.00 | 0.00 | 55 | 1013.0 |
| 20260507224126 | 30 | 280 | 6.4 | 11.3 | 0.00 | 0.00 | 0.00 | 53 | 1012.8 |
| 20260507223623 | 31 | 111 | 0.0 | 0.0 | 0.00 | 0.00 | 0.00 | 50 | 1013.0 |